| time (UTC) | temp F | wind direction | speed MPH | gust MPH | rain 1hr in | rain 24hr in | rain mn in | humidity % | barometer mb |
| 20260506003039 | 61 | 219 | 3.0 | 7.0 | 0.00 | 0.00 | 0.00 | 70 | 1006.7 |
| 20260506001539 | 62 | 236 | 1.0 | 9.0 | 0.00 | 0.00 | 0.00 | 68 | 1005.9 |
| 20260506000036 | 63 | 244 | 1.0 | 3.0 | 0.00 | 0.00 | 0.00 | 68 | 1005.2 |
| 20260505234537 | 64 | 5 | 0.0 | 3.0 | 0.00 | 0.00 | 0.00 | 66 | 1005.8 |
| 20260505233034 | 64 | 5 | 0.0 | 4.0 | 0.00 | 0.00 | 0.00 | 66 | 1005.8 |
| 20260505231535 | 64 | 288 | 3.0 | 9.0 | 0.00 | 0.00 | 0.00 | 65 | 1006.1 |
| 20260505230048 | 63 | 342 | 7.0 | 15.0 | 0.00 | 0.00 | 0.00 | 65 | 1006.0 |
| 20260505224533 | 63 | 234 | 7.0 | 18.0 | 0.00 | 0.00 | 0.00 | 64 | 1003.8 |
| 20260505223032 | 63 | 225 | 9.0 | 25.0 | 0.00 | 0.00 | 0.00 | 64 | 1003.8 |
| 20260505221531 | 64 | 279 | 11.0 | 19.0 | 0.00 | 0.00 | 0.00 | 62 | 1003.7 |
| 20260505220032 | 64 | 64 | 8.0 | 14.0 | 0.00 | 0.00 | 0.00 | 65 | 1003.6 |
| 20260505214530 | 63 | 232 | 8.0 | 15.0 | 0.00 | 0.00 | 0.00 | 67 | 1003.6 |
| 20260505213029 | 63 | 229 | 7.0 | 15.0 | 0.00 | 0.00 | 0.00 | 67 | 1003.5 |
| 20260505211528 | 64 | 196 | 7.0 | 13.0 | 0.00 | 0.00 | 0.00 | 65 | 1003.3 |
| 20260505210028 | 65 | 249 | 7.0 | 18.0 | 0.00 | 0.00 | 0.00 | 63 | 1003.3 |
| 20260505204527 | 65 | 224 | 9.0 | 22.0 | 0.00 | 0.00 | 0.00 | 63 | 1003.2 |
| 20260505203027 | 65 | 196 | 8.0 | 21.0 | 0.00 | 0.00 | 0.00 | 63 | 1003.2 |
| 20260505201524 | 66 | 271 | 9.0 | 21.0 | 0.00 | 0.00 | 0.00 | 63 | 1003.3 |
| 20260505200024 | 66 | 196 | 7.0 | 20.0 | 0.00 | 0.00 | 0.00 | 63 | 1003.6 |
| 20260505194523 | 66 | 338 | 5.0 | 13.0 | 0.00 | 0.00 | 0.00 | 63 | 1003.9 |
| 20260505193020 | 65 | 242 | 9.0 | 18.0 | 0.00 | 0.00 | 0.00 | 63 | 1004.0 |
| 20260505191517 | 66 | 197 | 8.0 | 17.0 | 0.00 | 0.00 | 0.00 | 63 | 1004.2 |
| 20260505190015 | 67 | 213 | 7.0 | 14.0 | 0.00 | 0.00 | 0.00 | 60 | 1004.4 |
| 20260505184515 | 65 | 226 | 7.0 | 15.0 | 0.00 | 0.00 | 0.00 | 63 | 1004.4 |
| 20260505183012 | 65 | 252 | 8.0 | 19.0 | 0.00 | 0.00 | 0.00 | 64 | 1004.8 |
| 20260505181512 | 65 | 203 | 9.0 | 17.0 | 0.00 | 0.00 | 0.00 | 65 | 1005.0 |
| 20260505180023 | 65 | 205 | 12.0 | 22.0 | 0.00 | 0.00 | 0.00 | 63 | 1005.0 |
| 20260505174508 | 66 | 220 | 9.0 | 15.0 | 0.00 | 0.00 | 0.00 | 61 | 1005.1 |
| 20260505173007 | 67 | 219 | 7.0 | 19.0 | 0.00 | 0.00 | 0.00 | 61 | 1005.0 |
| 20260505171505 | 68 | 198 | 8.0 | 17.0 | 0.00 | 0.00 | 0.00 | 60 | 1005.5 |
| 20260505170002 | 68 | 211 | 5.0 | 16.0 | 0.00 | 0.00 | 0.00 | 59 | 1005.5 |
| 20260505164600 | 69 | 207 | 9.0 | 21.0 | 0.00 | 0.00 | 0.00 | 57 | 1005.7 |
| 20260505163058 | 68 | 281 | 5.0 | 16.0 | 0.00 | 0.00 | 0.00 | 57 | 1006.2 |
| 20260505161556 | 68 | 271 | 6.0 | 12.0 | 0.00 | 0.00 | 0.00 | 61 | 1006.2 |
| 20260505153044 | 60 | 244 | 6.0 | 10.0 | 0.00 | 0.00 | 0.00 | 71 | 1007.1 |
| 20260505151541 | 57 | 284 | 7.0 | 11.0 | 0.00 | 0.00 | 0.00 | 72 | 1007.3 |
| 20260505124523 | 57 | 196 | 3.0 | 11.0 | 0.00 | 0.00 | 0.00 | 70 | 1007.2 |
| 20260505123029 | 56 | 186 | 5.0 | 11.0 | 0.00 | 0.00 | 0.00 | 71 | 1007.2 |
| 20260505121519 | 56 | 238 | 6.0 | 11.0 | 0.00 | 0.00 | 0.00 | 71 | 1007.3 |
| 20260505120023 | 57 | 329 | 4.0 | 10.0 | 0.00 | 0.00 | 0.00 | 71 | 1007.4 |
| 20260505114516 | 55 | 227 | 3.0 | 10.0 | 0.00 | 0.00 | 0.00 | 72 | 1007.7 |
| 20260505113014 | 54 | 214 | 4.0 | 11.0 | 0.00 | 0.00 | 0.00 | 71 | 1007.6 |
| 20260505111519 | 53 | 213 | 4.0 | 8.0 | 0.00 | 0.00 | 0.00 | 69 | 1007.7 |
| 20260505101527 | 49 | 259 | 2.0 | 5.0 | 0.00 | 0.00 | 0.00 | 63 | 1007.6 |
| 20260505100032 | 49 | 250 | 1.0 | 4.0 | 0.00 | 0.00 | 0.00 | 61 | 1007.6 |
| 20260505094508 | 49 | 262 | 2.0 | 6.0 | 0.00 | 0.00 | 0.00 | 63 | 1007.6 |
| 20260505093005 | 49 | 194 | 2.0 | 7.0 | 0.00 | 0.00 | 0.00 | 67 | 1007.5 |
| 20260505091503 | 49 | 219 | 1.0 | 4.0 | 0.00 | 0.00 | 0.00 | 70 | 1007.5 |
| 20260505090108 | 50 | 222 | 1.0 | 3.0 | 0.00 | 0.00 | 0.00 | 72 | 1007.6 |
| 20260505084606 | 50 | 213 | 1.0 | 3.0 | 0.00 | 0.00 | 0.00 | 73 | 1007.7 |
| 20260505083057 | 52 | 221 | 2.0 | 7.0 | 0.00 | 0.00 | 0.00 | 72 | 1007.8 |
| 20260505081604 | 53 | 244 | 0.0 | 3.0 | 0.00 | 0.00 | 0.00 | 69 | 1007.8 |
| 20260505080059 | 53 | 238 | 1.0 | 3.0 | 0.00 | 0.00 | 0.00 | 68 | 1007.7 |
| 20260505074549 | 54 | 230 | 1.0 | 3.0 | 0.00 | 0.00 | 0.00 | 67 | 1007.9 |
| 20260505073048 | 54 | 240 | 1.0 | 4.0 | 0.00 | 0.00 | 0.00 | 66 | 1007.7 |
| 20260505071551 | 55 | 284 | 0.0 | 2.0 | 0.00 | 0.00 | 0.00 | 65 | 1007.7 |
| 20260505070042 | 55 | 286 | 0.0 | 3.0 | 0.00 | 0.00 | 0.00 | 64 | 1007.7 |
| 20260505064541 | 55 | 267 | 0.0 | 3.0 | 0.00 | 0.00 | 0.00 | 64 | 1007.7 |
| 20260505063047 | 55 | 294 | 0.0 | 2.0 | 0.00 | 0.00 | 0.00 | 64 | 1007.7 |
| 20260505061541 | 56 | 292 | 0.0 | 1.0 | 0.00 | 0.00 | 0.00 | 63 | 1007.7 |
| 20260505060037 | 56 | 291 | 0.0 | 3.0 | 0.00 | 0.00 | 0.00 | 63 | 1007.7 |
| 20260505054544 | 56 | 291 | 0.0 | 3.0 | 0.00 | 0.00 | 0.00 | 62 | 1007.6 |
| 20260505053040 | 56 | 277 | 0.0 | 3.0 | 0.00 | 0.00 | 0.00 | 62 | 1007.6 |
| 20260505051540 | 57 | 261 | 1.0 | 4.0 | 0.00 | 0.00 | 0.00 | 61 | 1007.5 |
| 20260505041526 | 56 | 229 | 2.0 | 7.0 | 0.00 | 0.00 | 0.00 | 63 | 1007.2 |
| 20260505040023 | 56 | 14 | 1.0 | 8.0 | 0.00 | 0.00 | 0.00 | 65 | 1007.0 |
| 20260505034523 | 55 | 263 | 3.0 | 8.0 | 0.00 | 0.00 | 0.00 | 68 | 1006.9 |
| 20260505033022 | 54 | 259 | 2.0 | 8.0 | 0.00 | 0.00 | 0.00 | 70 | 1006.9 |
| 20260505031528 | 52 | 207 | 2.0 | 6.0 | 0.00 | 0.00 | 0.00 | 72 | 1006.8 |
| 20260505030023 | 52 | 275 | 2.0 | 5.0 | 0.00 | 0.00 | 0.00 | 72 | 1006.9 |
| 20260505024520 | 51 | 239 | 1.0 | 5.0 | 0.00 | 0.00 | 0.00 | 71 | 1006.8 |
| 20260505023022 | 51 | 197 | 1.0 | 3.0 | 0.00 | 0.00 | 0.00 | 71 | 1006.7 |
| 20260505021520 | 50 | 247 | 1.0 | 4.0 | 0.00 | 0.00 | 0.00 | 70 | 1006.7 |
| 20260505020019 | 50 | 266 | 2.0 | 4.0 | 0.00 | 0.00 | 0.00 | 71 | 1006.7 |
| 20260505014518 | 50 | 232 | 1.0 | 4.0 | 0.00 | 0.00 | 0.00 | 71 | 1006.5 |
| 20260505013018 | 51 | 211 | 2.0 | 5.0 | 0.00 | 0.00 | 0.00 | 72 | 1006.5 |
| 20260505011525 | 52 | 221 | 2.0 | 5.0 | 0.00 | 0.00 | 0.00 | 71 | 1006.2 |
| 20260505010029 | 52 | 238 | 2.0 | 4.0 | 0.00 | 0.00 | 0.00 | 70 | 1006.2 |
| 20260505004517 | 53 | 224 | 2.0 | 6.0 | 0.00 | 0.00 | 0.00 | 68 | 1006.0 |